* Astronomy

Members Login
Username 
 
Password 
    Remember Me  
Post Info TOPIC: Asteroid 2011 WQ46


L

Posts: 131433
Date:
RE: Asteroid 2011 WQ46
Permalink  
 


Update:
The 42 - 93 metre wide asteroid 2011 WQ46 will make a close pass (45.0 lunar distances, 0.1156 AU), travelling at 5.81 km/second, to the Earth-Moon system on the 10th December, 2011 @ 13:49 UT ±00:18. 

See more

The Lunar Distance (LD), the distance between Earth and the Moon, equals 384,401 km, (or 0.00256 AU).



__________________


L

Posts: 131433
Date:
Permalink  
 

The 41 - 91 metre wide asteroid 2011 WQ46 will make a close pass (45.0 lunar distances, 0.1156 AU), travelling at 5.82 km/second, to the Earth-Moon system on the 10th December, 2011 @ 16:35 UT ±15:15.

See more

The Lunar Distance (LD), the distance between Earth and the Moon, equals 384,401 km, (or 0.00256 AU).



__________________


L

Posts: 131433
Date:
Permalink  
 

Orbital elements:
2011 WQ46                                                Earth MOID = 0.0636 AU
Epoch 2011 Aug. 27.0 TT = JDT 2455800.5                 MPC
M 304.66268              (2000.0)            P               Q
n   0.47068997     Peri.  236.11569     -0.10138453     -0.99477770
a   1.6367390      Node   219.70839     +0.91872952     -0.08908277
e   0.3606171      Incl.    1.05547     +0.38165069     -0.04981545
P   2.09           H   24.1           G   0.15           U   8

MPEC 2011 - W73



__________________
Page 1 of 1  sorted by
 
Quick Reply

Please log in to post quick replies.



Create your own FREE Forum
Report Abuse
Powered by ActiveBoard